Weather History for MMHO - March, 2013

Change the Weather History Date:

Sunday, March 3, 2013

  Actual Average Record
Temperature  
Mean Temperature 73 °F -  
Max Temperature 95 °F 82 °F - ()
Min Temperature 51 °F 52 °F - ()
Cooling Degree Days 8    
Growing Degree Days 23 (Base 50)    
Moisture  
Dew Point 24 °F    
Average Humidity 20    
Maximum Humidity 41    
Minimum Humidity 5    
Precipitation  
Precipitation 0.00 in - - ()
Sea Level Pressure  
Sea Level Pressure 29.98 in    
Wind  
Wind Speed 2 mph ()    
Max Wind Speed 14 mph    
Max Gust Speed -    
Visibility 10.0 miles    
Events      
T = Trace of Precipitation, MM = Missing Value Source: Averaged Metar Reports

Daily Weather History Graph

Daily Weather History Graph

Search for Another Location

Airport or City:

Trip Planner

Search our weather history database for the weather conditions in past years. The results will help you decide how hot, cold, wet, or windy it might be!

Date:

Astronomy

Mar. 03, 2013 Rise Set
Actual Time 6:47 AM MST 6:25 PM MST
Civil Twilight 6:23 AM MST 6:49 PM MST
Nautical Twilight 5:55 AM MST 7:16 PM MST
Astronomical Twilight 5:28 AM MST 7:44 PM MST
Moon No Moon Rise 10:36 AM MST (3/3)
Length of Visible Light 12h 25m
Length of Day
11h 38m
Waning Gibbous, 63% of the Moon is Illuminated
Mar 3
Waning Gibbous
Mar 4
Last Quarter
Mar 11
New
Mar 19
First Quarter
Mar 27
Full

Hourly Weather History & Observations

Time (MST) Temp. Dew Point Humidity Pressure Visibility Wind Dir Wind Speed Gust Speed Precip Events Conditions
12:40 AM 60.8 °F 28.4 °F 29% 30.04 in 10.0 mi Calm Calm - N/A   Clear
1:42 AM 60.8 °F 28.4 °F 29% 30.01 in 10.0 mi Calm Calm - N/A   Clear
2:45 AM 59.0 °F 30.2 °F 34% 30.02 in 10.0 mi Calm Calm - N/A   Clear
3:58 AM 53.6 °F 26.6 °F 35% 30.00 in 10.0 mi Calm Calm - N/A   Clear
4:51 AM 55.4 °F 28.4 °F 36% 29.97 in 10.0 mi Calm Calm - N/A   Clear
6:10 AM 51.8 °F 28.4 °F 41% 30.01 in 10.0 mi Calm Calm - N/A   Clear
6:41 AM 53.6 °F 28.4 °F 38% 30.02 in 10.0 mi Calm Calm - N/A   Clear
7:44 AM 57.2 °F 28.4 °F 33% 30.03 in 10.0 mi Calm Calm - N/A   Clear
8:49 AM 66.2 °F 28.4 °F 24% 30.05 in 10.0 mi Calm Calm - N/A   Clear
9:48 AM 75.2 °F 28.4 °F 18% 30.04 in 10.0 mi Calm Calm - N/A   Clear
10:40 AM 78.8 °F 26.6 °F 15% 30.00 in 10.0 mi Calm Calm - N/A   Clear
11:51 AM 87.8 °F 26.6 °F 11% 30.01 in 10.0 mi South 5.8 mph - N/A   Scattered Clouds
12:48 PM 89.6 °F 24.8 °F 10% 29.99 in 10.0 mi SSW 6.9 mph - N/A   Scattered Clouds
1:53 PM 93.2 °F 19.4 °F 7% 29.92 in 10.0 mi Calm Calm - N/A   Scattered Clouds
2:48 PM 93.2 °F 19.4 °F 7% 29.95 in 10.0 mi West 9.2 mph - N/A   Clear
3:50 PM 95.0 °F 14.0 °F 5% 29.94 in 10.0 mi WSW 13.8 mph - N/A   Clear
4:51 PM 93.2 °F 17.6 °F 6% 29.91 in 10.0 mi West 9.2 mph - N/A   Partly Cloudy
5:53 PM 87.8 °F 17.6 °F 8% 29.93 in 10.0 mi South 9.2 mph - N/A   Scattered Clouds
6:40 PM 82.4 °F 19.4 °F 10% 29.94 in 10.0 mi South 6.9 mph - N/A   Scattered Clouds
7:48 PM 77.0 °F 17.6 °F 11% 29.92 in 10.0 mi South 5.8 mph - N/A   Scattered Clouds
8:42 PM 71.6 °F 21.2 °F 15% 29.96 in 10.0 mi Calm Calm - N/A   Scattered Clouds
9:42 PM 69.8 °F 23.0 °F 17% 29.97 in 10.0 mi Calm Calm - N/A   Scattered Clouds
10:46 PM 68.0 °F 21.2 °F 17% 29.94 in 10.0 mi Calm Calm - N/A   Scattered Clouds
11:42 PM 62.6 °F 24.8 °F 24% 29.96 in 10.0 mi NNW 4.6 mph - N/A   Scattered Clouds